Home   Weather   Phoenix   Past weeks

Flag for USA Past Weather in Phoenix, Arizona, USA — Yesterday and Last 2 Weeks

77 °F

Passing clouds.

Feels Like: 78 °F
Forecast: 71 / 90 °F
Wind: 5 mph from West

Location: Phoenix Sky Harbor International Airport

Current Time: Oct 25, 2016 at 3:17:11 AM

Latest Report: Oct 25, 2016 at 1:51 AM

Visibility: 10 mi

Pressure: 29.96 "Hg

Humidity: 47%

Dew Point: 55 °F

Location of PhoenixLocation

Past Weather in Phoenix — Graph


Phoenix Temperature Yesterday

Maximum temperature yesterday: 90 °F (at 2:51 PM)
Minimum temperature yesterday: 73 °F (at 4:51 AM)
Average temperature yesterday: 81 °F

High & Low Weather Summary for the Past Weeks

High97 °F (Oct 22, 2:51 PM)49% (Oct 18, 5:51 AM)30.01 "Hg (Oct 18, 5:51 AM)
Low64 °F (Oct 20, 6:51 AM)7% (Oct 20, 9:51 AM)29.71 "Hg (Oct 17, 4:51 PM)
Average81 °F25%29.86 "Hg
* Reported Oct 10 1:51 AM — Oct 25 1:51 AM, Phoenix, Weather by CustomWeather, © 2016

Note: Actual official high and low records may vary slightly from our data, if they occured in-between our weather recording intervals... More about our weather records


Phoenix Weather History for the Previous 24 Hours

Scroll right to see more
Time TempWeatherWind HumidityBarometerVisibility
1:51 AM
Tue, Oct 25
77 °FPassing clouds.5 mph47%29.96 "Hg10 mi
12:51 AM80 °FPartly cloudy.No wind39%29.95 "Hg10 mi
11:51 PM
Mon, Oct 24
81 °FPartly cloudy.8 mph38%29.92 "Hg10 mi
10:51 PM81 °FPartly cloudy.No wind37%29.95 "Hg10 mi
9:51 PM82 °FOvercast.7 mph35%29.95 "Hg10 mi
8:51 PM82 °FMostly cloudy.3 mph35%29.93 "Hg10 mi
7:51 PM84 °FMostly cloudy.3 mph33%29.92 "Hg10 mi
6:51 PM84 °FMostly cloudy.5 mph33%29.91 "Hg10 mi
5:51 PM88 °FOvercast.5 mph27%29.90 "Hg10 mi
4:51 PM89 °FCloudy.6 mph27%29.90 "Hg10 mi
3:51 PM89 °FBroken clouds.7 mph28%29.91 "Hg10 mi
2:51 PM90 °FCloudy.6 mph26%29.92 "Hg10 mi
1:51 PM89 °FMostly cloudy.No wind27%29.94 "Hg10 mi
12:51 PM87 °FMore clouds than sun.No wind29%29.97 "Hg10 mi
11:51 AM86 °FOvercast.3 mph30%30.00 "Hg10 mi
10:51 AM84 °FOvercast.7 mph31%30.01 "Hg10 mi
9:51 AM81 °FPartly sunny.7 mph34%30.01 "Hg10 mi
8:51 AM78 °FPartly sunny.8 mph37%30.01 "Hg10 mi
7:51 AM75 °FBroken clouds.5 mph37%30.01 "Hg10 mi
6:51 AM73 °FBroken clouds.7 mph37%29.98 "Hg10 mi
5:51 AM73 °FPassing clouds.9 mph37%29.96 "Hg10 mi
4:51 AM73 °FPassing clouds.8 mph34%29.95 "Hg10 mi
3:51 AM74 °FPassing clouds.9 mph32%29.94 "Hg10 mi
Weather by CustomWeather, © 2016

See weather overviewHow to use our weather pages